{"data":{"norad_id":65446,"intl_designator":"2025-194N","name":"STARLINK-34991","alt_names":[],"object_type":"PAYLOAD","status":"ACTIVE","operator":null,"country":"US","launch_date":"2025-09-03","launch_site_code":"AFWTR","launch_vehicle":null,"mission":null,"orbit_class":"UNKNOWN","rcs_meters":null,"size_class":null,"mass_kg":null,"dimensions":null,"purposes":["comms"],"wikipedia_slug":null,"has_3d_model":false,"image_url":null,"decayed_at":null,"tle_current":{"epoch":"2026-09-20T13:50:41.900640Z","epoch_age_seconds":108266,"freshness":"FRESH","line1":"1 65446U 25194N   26263.57687385  .00012112  00000+0  37667-3 0  9992","line2":"2 65446  97.2807 113.1338 0002807  87.0119 273.1445 15.33460038 59073","mean_motion":15.33460038,"eccentricity":0.0002807,"inclination_deg":97.2807,"raan_deg":113.1338,"arg_perigee_deg":87.0119,"mean_anomaly_deg":273.1445,"bstar":0.00037667,"rev_number":5907,"period_min":93.905283758037,"perigee_km":463.57742387005,"apogee_km":467.41944080176,"semimajor_km":6843.6354323359,"source":"CELESTRAK","updated_at":"2026-09-21T09:00:35.610828Z"}}}